Weather History for Nagpur Sonegaon, India

Change the Weather History Date:

Friday, January 17, 2014

  Actual Average Record
Temperature  
Mean Temperature 76 °F -  
Max Temperature 86 °F 86 °F - ()
Min Temperature 65 °F 57 °F - ()
Cooling Degree Days 10    
Growing Degree Days 26 (Base 50)    
Moisture  
Dew Point 61 °F    
Average Humidity 64    
Maximum Humidity 88    
Minimum Humidity 34    
Precipitation  
Precipitation 0.16 in 0.03 in - ()
Sea Level Pressure  
Sea Level Pressure 29.95 in    
Wind  
Wind Speed 4 mph ()    
Max Wind Speed 10 mph    
Max Gust Speed -    
Visibility 2.0 miles    
Events      
T = Trace of Precipitation, MM = Missing Value Source: Averaged Metar Reports

Daily Weather History Graph

Daily Weather History Graph

Search for Another Location

Airport:

Trip Planner

Search our weather history database for the weather conditions in past years. The results will help you decide how hot, cold, wet, or windy it might be!

Date:

Astronomy

Jan. 17, 2014 Rise Set
Actual Time 6:53 AM IST 5:54 PM IST
Civil Twilight 6:29 AM IST 6:17 PM IST
Nautical Twilight 6:02 AM IST 6:45 PM IST
Astronomical Twilight 5:35 AM IST 7:12 PM IST
Moon 6:59 PM IST (1/17) 7:18 AM IST (1/17)
Length of Visible Light 11h 48m
Length of Day
11h 00m
Full, 99% of the Moon is Illuminated
Jan 17
Full
Jan 24
Last Quarter
Jan 31
New
Feb 7
First Quarter
Feb 15
Full

Hourly Weather History & Observations

Time (IST) Temp. Heat Index Dew Point Humidity Pressure Visibility Wind Dir Wind Speed Gust Speed Precip Events Conditions
12:10 AM 66.2 °F - 60.8 °F 83% 29.98 in 2.5 mi Calm Calm - N/A   Haze
2:30 AM 67 °F - 63 °F 84% 29.96 in 1 mi East 2.3 mph - -   Haze
4:10 AM 64.4 °F - 59.0 °F 83% 29.98 in 2.5 mi ENE 2.3 mph - N/A   Haze
5:10 AM 64.4 °F - 60.8 °F 88% 29.98 in 2.5 mi ENE 2.3 mph - N/A   Haze
5:30 AM 67 °F - 63 °F 83% 29.96 in 1 mi ESE 4.6 mph - -   Haze
6:10 AM 64.4 °F - 60.8 °F 88% 29.98 in 1.9 mi East 3.5 mph - N/A   Haze
6:40 AM 64.4 °F - 60.8 °F 88% 29.98 in 1.2 mi East 4.6 mph - N/A   Haze
7:40 AM 64.4 °F - 60.8 °F 88% 30.01 in 0.9 mi East 6.9 mph - N/A   Mostly Cloudy
8:10 AM 66.2 °F - 60.8 °F 83% 30.04 in 1.2 mi ESE 6.9 mph - N/A   Haze
8:30 AM 68 °F - 64 °F 82% 30.03 in 1 mi East 6.9 mph - -   Haze
8:40 AM 66.2 °F - 60.8 °F 83% 30.04 in 1.2 mi East 5.8 mph - N/A   Haze
9:40 AM 69.8 °F - 62.6 °F 78% 30.06 in 1.6 mi SSE 5.8 mph - N/A   Haze
10:10 AM 73.4 °F - 64.4 °F 73% 30.06 in 1.6 mi South 4.6 mph - N/A   Haze
11:30 AM 81 °F - 65 °F 48% 30.00 in 1 mi SSW 5.8 mph - -   Haze
11:40 AM 78.8 °F - 62.6 °F 57% 30.04 in 2.5 mi SSW 5.8 mph - N/A   Haze
12:10 PM 80.6 °F 81.8 °F 62.6 °F 54% 30.01 in 2.5 mi South 6.9 mph - N/A   Haze
12:40 PM 80.6 °F 81.8 °F 62.6 °F 54% 29.98 in 2.5 mi SSW 10.4 mph - N/A   Haze
1:10 PM 80.6 °F 81.8 °F 62.6 °F 54% 29.98 in 2.5 mi SSW 9.2 mph - N/A   Haze
2:10 PM 82.4 °F 83.4 °F 62.6 °F 51% 29.92 in 2.5 mi South 5.8 mph - N/A   Haze
2:30 PM 83 °F - 62 °F 39% 29.86 in 2 mi SSW 6.9 mph - -   Haze
3:10 PM 82.4 °F 83.4 °F 62.6 °F 51% 29.89 in 2.5 mi SSE 5.8 mph - N/A   Haze
3:40 PM 82.4 °F 82.9 °F 60.8 °F 48% 29.89 in 2.5 mi SSW 2.3 mph - N/A   Haze
4:10 PM 82.4 °F 82.5 °F 59.0 °F 45% 29.89 in 2.5 mi South 8.1 mph - N/A   Haze
4:40 PM 80.6 °F 81.1 °F 59.0 °F 48% 29.89 in 2.5 mi South 6.9 mph - N/A   Haze
5:10 PM 80.6 °F 81.1 °F 59.0 °F 48% 29.89 in 2.5 mi South 8.1 mph - N/A   Haze
5:30 PM 81 °F - 57 °F 34% 29.86 in 2 mi South 5.8 mph - -   Haze
5:40 PM 78.8 °F - 57.2 °F 47% 29.92 in 2.5 mi South 6.9 mph - N/A   Haze
6:40 PM 75.2 °F - 59.0 °F 57% 29.92 in 2.5 mi SE 4.6 mph - N/A   Haze
7:10 PM 75.2 °F - 59.0 °F 57% 29.92 in 2.5 mi SE 4.6 mph - N/A   Haze
7:40 PM 73.4 °F - 59.0 °F 61% 29.92 in 2.5 mi SSE 4.6 mph - N/A   Haze
8:10 PM 73.4 °F - 59.0 °F 61% 29.95 in 2.5 mi SSE 5.8 mph - N/A   Haze
8:30 PM 73 °F - 61 °F 56% 29.91 in 1 mi South 4.6 mph - -   Haze
8:40 PM 71.6 °F - 59.0 °F 64% 29.95 in 2.5 mi South 4.6 mph - N/A   Haze
9:10 PM 71.6 °F - 59.0 °F 64% 29.95 in 2.5 mi South 5.8 mph - N/A   Haze
9:40 PM 73.4 °F - 59.0 °F 61% 29.95 in 2.5 mi South 6.9 mph - N/A   Haze
10:10 PM 73.4 °F - 59.0 °F 61% 29.95 in - South 8.1 mph - N/A   Haze
10:40 PM 73.4 °F - 59.0 °F 61% 29.92 in 2.5 mi SSE 5.8 mph - N/A   Haze
11:10 PM 73.4 °F - 59.0 °F 61% 29.92 in 2.5 mi South 6.9 mph - N/A   Haze
11:30 PM 74 °F - 61 °F 54% 29.90 in 1 mi South 6.9 mph - -   Haze